Weather History for KDMN - November, 2012

Change the Weather History Date:

Monday, November 19, 2012

  Actual Average Record
Temperature  
Mean Temperature 52 °F 48 °F  
Max Temperature 69 °F 64 °F - ()
Min Temperature 35 °F 33 °F - ()
Degree Days  
Heating Degree Days 12    
Growing Degree Days 2 (Base 50)    
Moisture  
Dew Point 36 °F    
Average Humidity 64    
Maximum Humidity 100    
Minimum Humidity 27    
Precipitation  
Precipitation 0.00 in 0.03 in - ()
Month to date precipitation 0.05 0.39  
Year to date precipitation 3.80 10.34  
Sea Level Pressure  
Sea Level Pressure 30.17 in    
Wind  
Wind Speed 2 mph (WNW)    
Max Wind Speed 10 mph    
Max Gust Speed 13 mph    
Visibility 10 miles    
Events      
T = Trace of Precipitation, MM = Missing Value Source: NWS Daily Summary

Daily Weather History Graph

Daily Weather History Graph

Search for Another Location

Airport or City:

Trip Planner

Search our weather history database for the weather conditions in past years. The results will help you decide how hot, cold, wet, or windy it might be!

Date:

Astronomy

Nov. 19, 2012 Rise Set
Actual Time 6:44 AM MST 5:08 PM MST
Civil Twilight 6:17 AM MST 5:34 PM MST
Nautical Twilight 5:48 AM MST 6:04 PM MST
Astronomical Twilight 5:18 AM MST 6:33 PM MST
Moon 11:56 AM MST (11/19) 11:29 PM MST (11/19)
Length of Visible Light 11h 16m
Length of Day
10h 24m
Waxing Crescent, 41% of the Moon is Illuminated
Nov 19
Waxing Crescent
Nov 20
First Quarter
Nov 28
Full
Dec 6
Last Quarter
Dec 13
New

Hourly Weather History & Observations

Time (MST) Temp. Windchill Dew Point Humidity Pressure Visibility Wind Dir Wind Speed Gust Speed Precip Events Conditions
12:53 AM 39.9 °F 36.7 °F 37.0 °F 89% 30.14 in 10.0 mi North 4.6 mph - N/A   Clear
1:53 AM 39.9 °F 35.8 °F 37.0 °F 89% 30.13 in 10.0 mi NW 5.8 mph - N/A   Clear
2:53 AM 39.0 °F 35.7 °F 36.0 °F 89% 30.13 in 10.0 mi NW 4.6 mph - N/A   Clear
3:53 AM 39.9 °F 35.8 °F 36.0 °F 86% 30.12 in 10.0 mi NW 5.8 mph - N/A   Clear
4:53 AM 37.9 °F - 36.0 °F 93% 30.15 in 10.0 mi Calm Calm - N/A   Clear
5:53 AM 39.0 °F 36.8 °F 36.0 °F 89% 30.16 in 10.0 mi NNW 3.5 mph - N/A   Scattered Clouds
6:53 AM 36.0 °F - 35.1 °F 97% 30.20 in 10.0 mi Calm Calm - N/A   Partly Cloudy
7:53 AM 43.0 °F - 37.9 °F 82% 30.22 in 10.0 mi Calm Calm - N/A   Scattered Clouds
8:53 AM 51.1 °F - 41.0 °F 68% 30.22 in 10.0 mi Calm Calm - N/A   Clear
9:53 AM 59.0 °F - 41.0 °F 51% 30.21 in 10.0 mi Calm Calm - N/A   Clear
10:53 AM 61.0 °F - 42.1 °F 50% 30.20 in 10.0 mi Calm Calm - N/A   Partly Cloudy
11:53 AM 64.0 °F - 44.1 °F 48% 30.18 in 10.0 mi Calm Calm - N/A   Clear
12:53 PM 66.0 °F - 37.0 °F 34% 30.15 in 10.0 mi Calm Calm - N/A   Clear
1:53 PM 69.1 °F - 36.0 °F 30% 30.12 in 10.0 mi Variable 4.6 mph - N/A   Partly Cloudy
2:53 PM 68.0 °F - 35.1 °F 30% 30.12 in 10.0 mi Calm Calm - N/A   Partly Cloudy
3:53 PM 68.0 °F - 33.1 °F 27% 30.12 in 10.0 mi SW 9.2 mph - N/A   Clear
4:53 PM 64.9 °F - 34.0 °F 32% 30.14 in 10.0 mi SW 4.6 mph - N/A   Clear
5:53 PM 57.9 °F - 33.1 °F 39% 30.17 in 10.0 mi SW 3.5 mph - N/A   Clear
6:53 PM 53.1 °F - 34.0 °F 48% 30.20 in 10.0 mi Calm Calm - N/A   Clear
7:53 PM 48.0 °F - 33.1 °F 56% 30.21 in 10.0 mi Calm Calm - N/A   Clear
8:53 PM 48.9 °F - 33.1 °F 54% 30.19 in 10.0 mi NW 8.1 mph - N/A   Clear
9:53 PM 45.0 °F - 30.9 °F 58% 30.19 in 10.0 mi Calm Calm - N/A   Clear
10:53 PM 41.0 °F 39.0 °F 30.0 °F 65% 30.20 in 10.0 mi WSW 3.5 mph - N/A   Clear
11:53 PM 39.0 °F - 30.0 °F 70% 30.19 in 10.0 mi Calm Calm - N/A   Clear